SALMON FALLS @ MILTON: From 09/05/2020 05:00 to 09/20/2020 03:00

Date STAGE [FT] FLOW [CFS] LAKE ELEVATION [FT] PRECIPITATION INCREMENT [IN] AIR TEMPERATURE [DEGF]
09/19/2020 10:00 2.36 12.4 412.89 0.00 49.3
09/19/2020 09:00 2.36 12.4 412.88 0.00 44.3
09/19/2020 08:00 2.36 12.4 412.88 0.00 39.1
09/19/2020 07:00 2.36 12.4 412.88 0.00 39.3
09/19/2020 06:00 2.36 12.4 412.89 0.00 39.5
09/19/2020 05:00 2.36 12.4 412.89 0.00 43.4
09/19/2020 04:00 2.35 11.9 412.89 0.00 45.1
09/19/2020 03:00 2.35 11.9 412.89 0.00 46.2
09/19/2020 02:00 2.35 11.9 412.89 0.00 47.1
09/19/2020 01:00 2.35 11.9 412.90 0.00 47.6
09/19/2020 00:00 2.35 11.9 412.90 0.00 49.4
09/18/2020 23:00 2.35 11.9 412.90 0.00 51.9
09/18/2020 22:00 2.35 11.9 412.91 0.00 54.0
09/18/2020 21:00 2.35 11.9 412.89 0.00 56.4
09/18/2020 20:00 2.35 11.9 412.89 0.00 59.7
09/18/2020 19:00 2.35 11.9 412.91 0.00 62.4
09/18/2020 18:00 2.35 11.9 412.88 0.00 63.5
09/18/2020 17:00 2.35 11.9 412.90 0.00 62.6
09/18/2020 16:00 2.35 11.9 412.91 0.00 61.3
09/18/2020 15:00 2.35 11.9 412.89 0.00 58.7
09/18/2020 14:00 2.35 11.9 412.91 0.00 56.1
09/18/2020 13:00 2.35 11.9 412.91 0.00 54.2
09/18/2020 12:00 2.35 11.9 412.91 0.00 54.2
09/18/2020 11:00 2.35 11.9 412.91 0.00 52.3
09/18/2020 10:00 2.35 11.9 412.91 0.00 51.9
09/18/2020 09:00 2.35 11.9 412.91 0.00 51.2
09/18/2020 08:00 2.35 11.9 412.91 0.00 51.3
09/18/2020 07:00 2.35 11.9 412.91 0.00 53.0
09/18/2020 06:00 2.35 11.9 412.91 0.00 54.9
09/18/2020 05:00 2.35 11.9 412.91 0.00 54.7
09/18/2020 04:00 2.35 11.9 412.92 0.00 55.2
09/18/2020 03:00 2.35 11.9 412.91 0.00 55.5
09/18/2020 02:00 2.34 11.4 412.91 0.00 55.4
09/18/2020 01:00 2.35 11.9 412.91 0.00 55.5
09/18/2020 00:00 2.34 11.4 412.92 0.00 56.8
09/17/2020 23:00 2.35 11.9 412.91 0.00 61.0
09/17/2020 22:00 2.35 11.9 412.91 0.00 61.6
09/17/2020 21:00 2.34 11.4 412.92 0.00 62.1
09/17/2020 20:00 2.34 11.4 412.91 0.00 64.0
09/17/2020 19:00 2.35 11.9 412.91 0.00 66.8
09/17/2020 18:00 2.34 11.4 412.92 0.00 69.1
09/17/2020 17:00 2.34 11.4 412.92 0.00 71.7
09/17/2020 16:00 2.34 11.4 412.92 0.00 71.4
09/17/2020 15:00 2.34 11.4 412.92 0.00 71.5
09/17/2020 14:00 2.34 11.4 412.91 0.00 72.0
09/17/2020 13:00 2.34 11.4 412.91 0.00 69.2
09/17/2020 12:00 2.34 11.4 412.91 0.00 65.7
09/17/2020 11:00 2.34 11.4 412.91 0.00 62.8
09/17/2020 10:00 2.34 11.4 412.91 0.00 59.3
09/17/2020 09:00 2.33 10.9 412.91 0.00 53.8
09/17/2020 08:00 2.33 10.9 412.92 0.00 50.6
09/17/2020 07:00 2.33 10.9 412.92 0.00 50.6
09/17/2020 06:00 2.33 10.9 412.90 0.00 50.4
09/17/2020 05:00 2.33 10.9 412.90 0.00 52.3
09/17/2020 04:00 2.33 10.9 412.90 0.00 52.3
09/17/2020 03:00 2.33 10.9 412.91 0.00 54.3
09/17/2020 02:00 2.33 10.9 412.91 0.00 54.6
09/17/2020 01:00 2.33 10.9 412.92 0.00 56.0
09/17/2020 00:00 2.33 10.9 412.90 0.00 59.0
09/16/2020 23:00 2.33 10.9 412.92 0.00 60.4
09/16/2020 22:00 2.33 10.9 412.92 0.00 61.6
09/16/2020 21:00 2.33 10.9 412.91 0.00 63.6
09/16/2020 20:00 2.33 10.9 412.91 0.00 66.2
09/16/2020 19:00 2.33 10.9 412.89 0.00 69.8
09/16/2020 18:00 2.33 10.9 412.91 0.00 72.1
09/16/2020 17:00 2.32 10.5 412.88 0.00 73.0
09/16/2020 16:00 2.32 10.5 412.89 0.00 72.9
09/16/2020 15:00 2.33 10.9 412.89 0.00 71.8
09/16/2020 14:00 2.32 10.5 412.89 0.00 69.5
09/16/2020 13:00 2.32 10.5 412.89 0.00 67.0
09/16/2020 12:00 2.32 10.5 412.90 0.00 65.0
09/16/2020 11:00 2.33 10.9 412.91 0.00 58.5
09/16/2020 10:00 2.32 10.5 412.91 0.00 50.4
09/16/2020 09:00 2.32 10.5 412.92 0.00 45.0
09/16/2020 08:00 2.32 10.5 412.92 0.00 42.4
09/16/2020 07:00 2.33 10.9 412.92 0.00 42.2
09/16/2020 06:00 2.33 10.9 412.93 0.00 42.8
09/16/2020 05:00 2.33 10.9 412.92 0.00 44.1
09/16/2020 04:00 2.33 10.9 412.93 0.00 44.1
09/16/2020 03:00 2.33 10.9 412.93 0.00 43.9
09/16/2020 02:00 2.33 10.9 412.94 0.00 44.5
09/16/2020 01:00 2.33 10.9 412.93 0.00 46.0
09/16/2020 00:00 2.33 10.9 412.92 0.00 47.6
09/15/2020 23:00 2.32 10.5 412.93 0.00 48.2
09/15/2020 22:00 2.32 10.5 412.93 0.00 50.3
09/15/2020 21:00 2.32 10.5 412.94 0.00 52.1
09/15/2020 20:00 2.33 10.9 412.93 0.00 55.1
09/15/2020 19:00 2.32 10.5 412.93 0.00 61.1
09/15/2020 18:00 2.32 10.5 412.93 0.00 63.4
09/15/2020 17:00 2.32 10.5 412.93 0.00 63.4
09/15/2020 16:00 2.32 10.5 412.92 0.00 62.9
09/15/2020 15:00 2.33 10.9 412.93 0.00 62.2
09/15/2020 14:00 2.32 10.5 412.93 0.00 60.1
09/15/2020 13:00 2.33 10.9 412.93 0.00 58.9
09/15/2020 12:00 2.33 10.9 412.94 0.00 55.6
09/15/2020 11:00 2.33 10.9 412.94 0.00 54.1
09/15/2020 10:00 2.32 10.5 412.95 0.00 47.2
09/15/2020 09:00 2.33 10.9 412.95 0.00 42.6
09/15/2020 08:00 2.33 10.9 412.95 0.00 40.2
09/15/2020 07:00 2.33 10.9 412.94 0.00 41.1
09/15/2020 06:00 2.33 10.9 412.96 0.00 41.8
09/15/2020 05:00 2.33 10.9 412.94 0.00 43.4
09/15/2020 04:00 2.33 10.9 412.95 0.00 43.2
09/15/2020 03:00 2.33 10.9 412.94 0.00 44.6
09/15/2020 02:00 2.33 10.9 412.95 0.00 46.9
09/15/2020 01:00 2.33 10.9 412.95 0.00 48.1
09/15/2020 00:00 2.32 10.5 412.95 0.00 49.8
09/14/2020 23:00 2.33 10.9 412.94 0.00 50.8
09/14/2020 22:00 2.33 10.9 412.96 0.00 53.9
09/14/2020 21:00 2.32 10.5 412.96 0.00 56.8
09/14/2020 20:00 2.33 10.9 412.97 0.00 59.4
09/14/2020 19:00 2.33 10.9 412.95 0.00 62.6
09/14/2020 18:00 2.33 10.9 412.96 0.00 65.5
09/14/2020 17:00 2.33 10.9 412.95 0.00 67.9
09/14/2020 16:00 2.33 10.9 412.93 0.00 69.2
09/14/2020 15:00 2.33 10.9 412.96 0.00 69.5
09/14/2020 14:00 2.33 10.9 412.97 0.00 69.3
09/14/2020 13:00 2.33 10.9 412.99 0.00 68.7
09/14/2020 12:00 2.33 10.9 412.95 0.00 68.5
09/14/2020 11:00 2.33 10.9 412.99 0.00 67.6
09/14/2020 10:00 2.33 10.9 412.97 0.00 66.3
09/14/2020 09:00 2.33 10.9 412.96 0.00 63.5
09/14/2020 08:00 2.33 10.9 412.96 0.00 59.7
09/14/2020 07:00 2.32 10.5 412.96 0.00 59.1
09/14/2020 06:00 2.32 10.5 412.95 0.00 58.4
09/14/2020 05:00 2.32 10.5 412.96 0.00 59.0
09/14/2020 04:00 2.33 10.9 412.97 0.00 60.3
09/14/2020 03:00 2.32 10.5 412.96 0.00 60.0
09/14/2020 02:00 2.33 10.9 412.97 0.00 61.0
09/14/2020 01:00 2.32 10.5 412.96 0.00 63.1
09/14/2020 00:00 2.32 10.5 412.96 0.00 64.5
09/13/2020 23:00 2.32 10.5 412.96 0.00 63.7
09/13/2020 22:00 2.32 10.5 412.96 0.00 64.5
09/13/2020 21:00 2.32 10.5 412.96 0.00 65.0
09/13/2020 20:00 2.32 10.5 412.98 0.00 65.9
09/13/2020 19:00 2.32 10.5 412.96 0.00 67.5
09/13/2020 18:00 2.32 10.5 412.97 0.00 68.6
09/13/2020 17:00 2.32 10.5 412.97 0.00 68.9
09/13/2020 16:00 2.32 10.5 412.95 0.00 69.3
09/13/2020 15:00 2.32 10.5 412.94 0.00 69.5
09/13/2020 14:00 2.32 10.5 412.97 0.00 67.5
09/13/2020 13:00 2.32 10.5 412.95 0.00 65.7
09/13/2020 12:00 2.32 10.5 412.97 0.00 62.7
09/13/2020 11:00 2.32 10.5 412.96 0.00 61.3
09/13/2020 10:00 2.32 10.5 412.98 0.00 57.0
09/13/2020 09:00 2.32 10.5 412.98 0.00 51.0
09/13/2020 08:00 2.32 10.5 412.99 0.00 48.7
09/13/2020 07:00 2.32 10.5 412.98 0.00 48.4
09/13/2020 06:00 2.32 10.5 412.98 0.00 47.2
09/13/2020 05:00 2.32 10.5 412.98 0.00 47.6
09/13/2020 04:00 2.32 10.5 412.99 0.00 49.1
09/13/2020 03:00 2.32 10.5 412.98 0.00 49.0
09/13/2020 02:00 2.32 10.5 412.98 0.00 49.3
09/13/2020 01:00 2.32 10.5 412.98 0.00 49.5
09/13/2020 00:00 2.32 10.5 412.98 0.00 50.4
09/12/2020 23:00 2.32 10.5 412.99 0.00 51.7
09/12/2020 22:00 2.32 10.5 412.98 0.00 53.3
09/12/2020 21:00 2.32 10.5 412.98 0.00 56.4
09/12/2020 20:00 2.32 10.5 412.98 0.00 59.7
09/12/2020 19:00 2.32 10.5 412.98 0.00 62.5
09/12/2020 18:00 2.32 10.5 412.98 0.00 65.4
09/12/2020 17:00 2.32 10.5 412.97 0.00 66.6
09/12/2020 16:00 2.32 10.5 412.98 0.00 67.6
09/12/2020 15:00 2.32 10.5 412.99 0.00 67.0
09/12/2020 14:00 2.33 10.9 412.99 0.00 66.6
09/12/2020 13:00 2.33 10.9 413.00 0.00 64.8
09/12/2020 12:00 2.33 10.9 413.00 0.00 62.7
09/12/2020 11:00 2.33 10.9 412.92 0.00 59.1
09/12/2020 10:00 2.33 10.9 413.00 0.00 55.6
09/12/2020 09:00 2.32 10.5 413.00 0.00 50.1
09/12/2020 08:00 2.33 10.9 413.00 0.00 47.4
09/12/2020 07:00 2.33 10.9 413.00 0.00 46.4
09/12/2020 06:00 2.33 10.9 413.00 0.00 47.9
09/12/2020 05:00 2.32 10.5 413.01 0.00 48.5
09/12/2020 04:00 2.32 10.5 413.00 0.00 49.6
09/12/2020 03:00 2.32 10.5 413.01 0.00 50.0
09/12/2020 02:00 2.32 10.5 413.00 0.00 50.8
09/12/2020 01:00 2.33 10.9 413.01 0.00 51.6
09/12/2020 00:00 2.32 10.5 413.01 0.00 53.3
09/11/2020 23:00 2.32 10.5 413.01 0.00 54.5
09/11/2020 22:00 2.32 10.5 413.00 0.00 55.7
09/11/2020 21:00 2.32 10.5 413.00 0.00 57.8
09/11/2020 20:00 2.32 10.5 413.00 0.00 61.7
09/11/2020 19:00 2.32 10.5 413.00 0.00 64.8
09/11/2020 18:00 2.32 10.5 413.00 0.00 68.2
09/11/2020 17:00 2.32 10.5 413.01 0.00 68.1
09/11/2020 16:00 2.32 10.5 413.02 0.00 67.1
09/11/2020 15:00 2.32 10.5 413.01 0.00 66.5
09/11/2020 14:00 2.32 10.5 413.02 0.00 65.3
09/11/2020 13:00 2.32 10.5 413.02 0.00 62.5
09/11/2020 12:00 2.32 10.5 413.03 0.00 61.7
09/11/2020 11:00 2.32 10.5 413.03 0.00 60.9
09/11/2020 10:00 2.32 10.5 413.03 0.00 61.2
09/11/2020 09:00 2.32 10.5 413.02 0.00 62.2
09/11/2020 08:00 2.32 10.5 413.03 0.00 63.3
09/11/2020 07:00 2.32 10.5 413.01 0.00 64.5
09/11/2020 06:00 2.32 10.5 413.02 0.00 64.7
09/11/2020 05:00 2.32 10.5 413.02 0.00 65.9
09/11/2020 04:00 2.32 10.5 413.03 0.00 66.6
09/11/2020 03:00 2.32 10.5 413.03 0.00 68.3
09/11/2020 02:00 2.32 10.5 413.03 0.00 68.0
09/11/2020 01:00 2.32 10.5 413.01 0.00 69.9
09/11/2020 00:00 2.32 10.5 413.02 0.00 70.2
09/10/2020 23:00 2.32 10.5 413.02 0.00 71.0
09/10/2020 22:00 2.32 10.5 413.02 0.00 72.0
09/10/2020 21:00 2.32 10.5 413.02 0.00 73.5
09/10/2020 20:00 2.32 10.5 413.00 0.00 74.2
09/10/2020 19:00 2.31 10.0 413.01 0.00 75.1
09/10/2020 18:00 2.32 10.5 413.01 0.00 75.7
09/10/2020 17:00 2.32 10.5 413.01 0.00 75.2
09/10/2020 16:00 2.31 10.0 413.02 0.00 74.6
09/10/2020 15:00 2.32 10.5 413.01 0.00 72.2
09/10/2020 14:00 2.32 10.5 413.01 0.00 73.7
09/10/2020 13:00 2.32 10.5 413.00 0.00 77.1
09/10/2020 12:00 2.32 10.5 413.01 0.00 77.5
09/10/2020 11:00 2.32 10.5 413.01 0.00 72.7
09/10/2020 10:00 2.32 10.5 413.02 0.00 67.7
09/10/2020 09:00 2.32 10.5 413.02 0.00 63.2
09/10/2020 08:00 2.32 10.5 413.01 0.00 60.7
09/10/2020 07:00 2.32 10.5 413.02 0.00 61.0
09/10/2020 06:00 2.32 10.5 413.01 0.00 62.3
09/10/2020 05:00 2.32 10.5 413.02 0.00 62.3
09/10/2020 04:00 2.32 10.5 413.01 0.00 61.9
09/10/2020 03:00 2.32 10.5 413.03 0.00 61.6
09/10/2020 02:00 2.32 10.5 413.02 0.00 62.4
09/10/2020 01:00 2.32 10.5 413.01 0.00 62.6
09/10/2020 00:00 2.32 10.5 413.02 0.00 62.9
09/09/2020 23:00 2.32 10.5 413.02 0.00 63.6
09/09/2020 22:00 2.32 10.5 413.02 0.00 65.2
09/09/2020 21:00 2.32 10.5 413.02 0.00 67.9
09/09/2020 20:00 2.32 10.5 413.02 0.00 70.7
09/09/2020 19:00 2.32 10.5 413.01 0.00 74.6
09/09/2020 18:00 2.32 10.5 413.02 0.00 78.1
09/09/2020 17:00 2.32 10.5 413.02 0.00 80.2
09/09/2020 16:00 2.32 10.5 413.02 0.00 80.8
09/09/2020 15:00 2.32 10.5 413.02 0.00 80.5
09/09/2020 14:00 2.32 10.5 413.02 0.00 79.7
09/09/2020 13:00 2.32 10.5 413.02 0.00 77.1
09/09/2020 12:00 2.32 10.5 413.02 0.00 74.4
09/09/2020 11:00 2.32 10.5 413.03 0.00 70.0
09/09/2020 10:00 2.32 10.5 413.02 0.00 66.2
09/09/2020 09:00 2.32 10.5 413.03 0.00 62.9
09/09/2020 08:00 2.32 10.5 413.02 0.00 61.1
09/09/2020 07:00 2.32 10.5 413.03 0.00 61.0
09/09/2020 06:00 2.32 10.5 413.03 0.00 61.4
09/09/2020 05:00 2.32 10.5 413.03 0.00 61.4
09/09/2020 04:00 2.32 10.5 413.03 0.00 62.4
09/09/2020 03:00 2.32 10.5 413.02 0.00 63.0
09/09/2020 02:00 2.32 10.5 413.04 0.00 63.8
09/09/2020 01:00 2.32 10.5 413.03 0.00 64.0
09/09/2020 00:00 2.32 10.5 413.03 0.00 65.0
09/08/2020 23:00 2.32 10.5 413.03 0.00 66.9
09/08/2020 22:00 2.32 10.5 413.03 0.00 69.5
09/08/2020 21:00 2.32 10.5 413.03 0.00 72.2
09/08/2020 20:00 2.32 10.5 413.02 0.00 75.4
09/08/2020 19:00 2.32 10.5 413.03 0.00 79.1
09/08/2020 18:00 2.32 10.5 413.03 0.00 81.8
09/08/2020 17:00 2.32 10.5 413.03 0.00 82.6
09/08/2020 16:00 2.32 10.5 413.04 0.00 82.3
09/08/2020 15:00 2.33 10.9 413.03 0.00 81.1
09/08/2020 14:00 2.65 34.1 413.03 0.00 78.7
09/08/2020 13:00 2.65 34.1 413.02 0.00 76.0
09/08/2020 12:00 2.65 34.1 413.03 0.00 71.9
09/08/2020 11:00 2.65 34.1 413.03 0.00 67.0
09/08/2020 10:00 2.65 34.1 413.03 0.00 60.6
09/08/2020 09:00 2.64 33.1 413.03 0.00 58.5
09/08/2020 08:00 2.64 33.1 413.05 0.00 57.7
09/08/2020 07:00 2.64 33.1 413.03 0.00 57.8
09/08/2020 06:00 2.64 33.1 413.04 0.00 58.0
09/08/2020 05:00 2.63 32.1 413.04 0.00 58.9
09/08/2020 04:00 2.63 32.1 413.04 0.00 58.9
09/08/2020 03:00 2.63 32.1 413.03 0.00 59.7
09/08/2020 02:00 2.62 31.1 413.02 0.00 59.6
09/08/2020 01:00 2.61 30.1 413.04 0.00 61.1
09/08/2020 00:00 2.61 30.1 413.04 0.00 62.6
09/07/2020 23:00 2.61 30.1 413.04 0.00 65.7
09/07/2020 22:00 2.61 30.1 413.04 0.00 67.3
09/07/2020 21:00 2.61 30.1 413.04 0.00 67.8
09/07/2020 20:00 2.61 30.1 413.03 0.00 68.9
09/07/2020 19:00 2.60 29.2 413.03 0.00 70.3
09/07/2020 18:00 2.60 29.2 413.01 0.00 72.1
09/07/2020 17:00 2.60 29.2 413.03 0.00 74.1
09/07/2020 16:00 2.60 29.2 413.02 0.00 78.6
09/07/2020 15:00 2.59 28.3 413.01 0.00 79.1
09/07/2020 14:00 2.59 28.3 412.99 0.00 78.1
09/07/2020 13:00 2.60 29.2 413.02 0.00 75.9
09/07/2020 12:00 2.59 28.3 413.03 0.00 73.4
09/07/2020 11:00 2.60 29.2 413.04 0.00 69.4
09/07/2020 10:00 2.59 28.3 413.04 0.00 64.1
09/07/2020 09:00 2.60 29.2 413.05 0.00 60.6
09/07/2020 08:00 2.59 28.3 413.05 0.00 58.0
09/07/2020 07:00 2.60 29.2 413.05 0.00 59.3
09/07/2020 06:00 2.59 28.3 413.06 0.00 57.8
09/07/2020 05:00 2.59 28.3 413.05 0.00 56.2
09/07/2020 04:00 2.59 28.3 413.06 0.00 55.2
09/07/2020 03:00 2.59 28.3 413.06 0.00 55.2
09/07/2020 02:00 2.59 28.3 413.05 0.00 56.4
09/07/2020 01:00 2.59 28.3 413.06 0.00 58.0
09/07/2020 00:00 2.59 28.3 413.06 0.00 59.2
09/06/2020 23:00 2.59 28.3 413.06 0.00 61.3
09/06/2020 22:00 2.59 28.3 413.06 0.00 62.7
09/06/2020 21:00 2.59 28.3 413.05 0.00 63.9
09/06/2020 20:00 2.58 27.4 413.06 0.00 67.6
09/06/2020 19:00 2.58 27.4 413.06 0.00 72.1
09/06/2020 18:00 2.58 27.4 413.06 0.00 74.8
09/06/2020 17:00 2.58 27.4 413.05 0.00 74.5
09/06/2020 16:00 2.57 26.5 413.07 0.00 74.3
09/06/2020 15:00 2.57 26.5 413.05 0.00 74.1
09/06/2020 14:00 2.57 26.5 413.06 0.00 73.1
09/06/2020 13:00 2.57 26.5 413.05 0.00 73.1
09/06/2020 12:00 2.57 26.5 413.06 0.00 69.7
09/06/2020 11:00 2.57 26.5 413.06 0.00 67.0
09/06/2020 10:00 2.57 26.5 413.06 0.00 62.3
09/06/2020 09:00 2.57 26.5 413.06 0.00 60.5
09/06/2020 08:00 2.57 26.5 413.06 0.00 58.5
09/06/2020 07:00 2.57 26.5 413.06 0.00 60.0
09/06/2020 06:00 2.57 26.5 413.07 0.00 61.5
09/06/2020 05:00 2.57 26.5 413.07 0.00 59.8
09/06/2020 04:00 2.57 26.5 413.06 0.00 60.4
09/06/2020 03:00 2.57 26.5 413.07 0.00 60.2
09/06/2020 02:00 2.57 26.5 413.07 0.00 59.8
09/06/2020 01:00 2.57 26.5 413.07 0.00 61.1
09/06/2020 00:00 2.57 26.5 413.07 0.00 61.8
09/05/2020 23:00 2.57 26.5 413.06 0.00 61.8
09/05/2020 22:00 2.57 26.5 413.07 0.00 61.3
09/05/2020 21:00 -- -- -- -- --
09/05/2020 20:00 -- -- -- -- --
09/05/2020 19:00 -- -- -- -- --
09/05/2020 18:00 -- -- -- -- --
09/05/2020 17:00 -- -- -- -- --
09/05/2020 16:00 -- -- -- -- --
09/05/2020 15:00 -- -- -- -- --
09/05/2020 14:00 -- -- -- -- --
09/05/2020 13:00 -- -- -- -- --
09/05/2020 12:00 -- -- -- -- --
09/05/2020 11:00 -- -- -- -- --
09/05/2020 10:00 -- -- -- -- --
09/05/2020 09:00 -- -- -- -- --
09/05/2020 08:00 -- -- -- -- --
09/05/2020 07:00 -- -- -- -- --
09/05/2020 06:00 -- -- -- -- --
09/05/2020 05:00 -- -- -- -- --